Accueil
METAR-TAF:

METAR-TAF

Aéroports :

Middleton Island, Alaska, États-Unis

latitude: 59-26N, longitude: 146-18W, altitude: 27 m

Observation

Le bulletin a été fait il y a 33 minutes, à 05:51 UTC
Vent 6 kt de sud-ouest
Température 13°C
Humidité 88%
Pression 1012 hPa
Visibilité: 16.1 km
Ciel couvert à une hauteur de 1500 ft

METAR: PAMD 120551Z AUTO 23006KT 10SM OVC015 13/11 A2988 RMK AO2 SLP106 T01280106 10156 20128 53006

Heure: 22:24 (06:24 UTC)


TAF: absent

Observations et prévisions météorologiques de plus de 4000 aéroports (messages METAR et TAF).

Les stations disponibles sont représentées par des disques jaunes et rouges sur la carte.

Passer la souris dessus pour voir le nom de la station.

Cliquer dessus pour voir les observations et prévisions météorologiques.

Pour changer de carte: cliquez sur les boutons verts avec une croix noire pour zoomer, sur le bouton vert avec un tiret pour effectuer un zoom arrière, ou sur les flèches vertes pour les cartes adjacentes.


METAR-TAF: